| time (UTC) | temp F | wind direction | speed knots | gust knots | rain 1hr in | rain 24hr in | rain mn in | humidity % | barometer mb |
| 20260505083054 | 54 | 220 | 3.5 | 8.7 | 0.00 | 0.00 | 0.00 | 97 | 1016.5 |
| 20260505081553 | 54 | 213 | 2.6 | 7.8 | 0.00 | 0.00 | 0.00 | 97 | 1016.5 |
| 20260505080051 | 54 | 216 | 2.6 | 7.0 | 0.00 | 0.00 | 0.00 | 97 | 1016.5 |
| 20260505074551 | 54 | 206 | 3.5 | 7.8 | 0.00 | 0.00 | 0.00 | 97 | 1016.4 |
| 20260505073101 | 54 | 198 | 2.6 | 7.0 | 0.00 | 0.00 | 0.00 | 97 | 1016.3 |
| 20260505071551 | 54 | 201 | 1.7 | 6.1 | 0.00 | 0.00 | 0.00 | 97 | 1016.1 |
| 20260505070043 | 54 | 224 | 4.3 | 7.8 | 0.00 | 0.00 | 0.00 | 97 | 1016.1 |
| 20260505064543 | 54 | 214 | 3.5 | 7.8 | 0.00 | 0.00 | 0.00 | 97 | 1016.1 |
| 20260505063042 | 54 | 201 | 2.6 | 8.7 | 0.00 | 0.00 | 0.00 | 97 | 1016.0 |
| 20260505061549 | 54 | 164 | 1.7 | 5.2 | 0.00 | 0.00 | 0.00 | 97 | 1015.9 |
| 20260505060039 | 54 | 199 | 3.5 | 7.8 | 0.00 | 0.00 | 0.00 | 97 | 1015.8 |
| 20260505054558 | 54 | 211 | 3.5 | 7.8 | 0.00 | 0.00 | 0.00 | 98 | 1015.8 |
| 20260505053041 | 54 | 191 | 0.9 | 7.0 | 0.00 | 0.00 | 0.00 | 98 | 1015.9 |
| 20260505051538 | 54 | 196 | 3.5 | 7.8 | 0.00 | 0.00 | 0.00 | 97 | 1015.7 |
| 20260505041537 | 54 | 211 | 4.3 | 7.8 | 0.00 | 0.00 | 0.00 | 97 | 1015.7 |
| 20260505040035 | 54 | 332 | 3.5 | 11.3 | 0.00 | 0.00 | 0.00 | 96 | 1015.4 |
| 20260505034534 | 54 | 249 | 3.5 | 8.7 | 0.00 | 0.00 | 0.00 | 96 | 1015.4 |
| 20260505033034 | 54 | 205 | 5.2 | 9.6 | 0.00 | 0.00 | 0.00 | 96 | 1015.3 |
| 20260505031543 | 55 | 184 | 3.5 | 7.8 | 0.00 | 0.00 | 0.00 | 96 | 1015.2 |
| 20260505030035 | 55 | 233 | 6.1 | 13.0 | 0.00 | 0.00 | 0.00 | 95 | 1015.2 |
| 20260505024631 | 55 | 224 | 7.0 | 12.2 | 0.00 | 0.00 | 0.00 | 94 | 1015.0 |
| 20260505023030 | 56 | 200 | 5.2 | 12.2 | 0.00 | 0.00 | 0.00 | 93 | 1015.0 |
| 20260505021530 | 57 | 218 | 5.2 | 12.2 | 0.00 | 0.00 | 0.00 | 91 | 1015.1 |
| 20260505020032 | 57 | 199 | 5.2 | 13.0 | 0.00 | 0.00 | 0.00 | 91 | 1015.1 |
| 20260505014535 | 57 | 294 | 7.0 | 15.6 | 0.00 | 0.00 | 0.00 | 90 | 1015.2 |
| 20260505013027 | 58 | 178 | 8.7 | 15.6 | 0.00 | 0.00 | 0.00 | 91 | 1015.2 |
| 20260505011533 | 58 | 220 | 7.0 | 19.1 | 0.00 | 0.00 | 0.00 | 91 | 1015.3 |
| 20260505010029 | 58 | 211 | 6.1 | 20.0 | 0.00 | 0.00 | 0.00 | 90 | 1015.2 |
| 20260505004543 | 58 | 170 | 6.1 | 15.6 | 0.00 | 0.00 | 0.00 | 89 | 1015.2 |
| 20260505003026 | 58 | 229 | 9.6 | 16.5 | 0.00 | 0.00 | 0.00 | 90 | 1015.2 |
| 20260505001525 | 59 | 209 | 10.4 | 15.6 | 0.00 | 0.00 | 0.00 | 89 | 1015.4 |
| 20260505000036 | 59 | 147 | 9.6 | 16.5 | 0.00 | 0.00 | 0.00 | 89 | 1015.6 |
| 20260504234524 | 60 | 202 | 8.7 | 16.5 | 0.00 | 0.00 | 0.00 | 89 | 1015.3 |
| 20260504233023 | 59 | 181 | 10.4 | 16.5 | 0.00 | 0.00 | 0.00 | 89 | 1015.3 |
| 20260504231522 | 60 | 194 | 11.3 | 17.4 | 0.00 | 0.00 | 0.00 | 88 | 1015.4 |
| 20260504230021 | 60 | 186 | 7.0 | 16.5 | 0.00 | 0.00 | 0.00 | 89 | 1015.4 |
| 20260504224520 | 60 | 203 | 7.0 | 16.5 | 0.00 | 0.00 | 0.00 | 89 | 1015.6 |
| 20260504223021 | 60 | 232 | 11.3 | 17.4 | 0.00 | 0.00 | 0.00 | 88 | 1015.4 |
| 20260504221519 | 60 | 198 | 5.2 | 17.4 | 0.00 | 0.00 | 0.00 | 90 | 1015.7 |
| 20260504220019 | 60 | 188 | 8.7 | 18.2 | 0.00 | 0.00 | 0.00 | 89 | 1015.7 |
| 20260504214519 | 61 | 232 | 10.4 | 16.5 | 0.00 | 0.00 | 0.00 | 88 | 1015.6 |
| 20260504213018 | 60 | 212 | 10.4 | 18.2 | 0.00 | 0.00 | 0.00 | 87 | 1015.7 |
| 20260504211518 | 61 | 172 | 10.4 | 18.2 | 0.00 | 0.00 | 0.00 | 86 | 1015.7 |
| 20260504210021 | 61 | 203 | 9.6 | 19.1 | 0.00 | 0.00 | 0.00 | 88 | 1016.0 |
| 20260504204515 | 61 | 207 | 7.8 | 18.2 | 0.00 | 0.00 | 0.00 | 87 | 1015.7 |
| 20260504203015 | 61 | 182 | 9.6 | 18.2 | 0.00 | 0.00 | 0.00 | 86 | 1015.8 |
| 20260504201514 | 61 | 208 | 9.6 | 15.6 | 0.00 | 0.00 | 0.00 | 86 | 1015.8 |
| 20260504200014 | 62 | 204 | 8.7 | 17.4 | 0.00 | 0.00 | 0.00 | 87 | 1015.7 |
| 20260504194513 | 62 | 217 | 9.6 | 15.6 | 0.00 | 0.00 | 0.00 | 85 | 1015.8 |
| 20260504193013 | 62 | 213 | 9.6 | 16.5 | 0.00 | 0.00 | 0.00 | 85 | 1015.9 |
| 20260504191511 | 62 | 197 | 7.8 | 14.8 | 0.00 | 0.00 | 0.00 | 84 | 1015.9 |
| 20260504190010 | 62 | 197 | 7.0 | 13.0 | 0.00 | 0.00 | 0.00 | 85 | 1015.9 |
| 20260504184511 | 63 | 248 | 7.0 | 12.2 | 0.00 | 0.00 | 0.00 | 83 | 1015.9 |
| 20260504183008 | 63 | 209 | 5.2 | 10.4 | 0.00 | 0.00 | 0.00 | 85 | 1015.7 |
| 20260504181507 | 63 | 191 | 7.8 | 11.3 | 0.00 | 0.00 | 0.00 | 83 | 1015.7 |
| 20260504180008 | 63 | 202 | 5.2 | 11.3 | 0.00 | 0.00 | 0.00 | 84 | 1015.7 |
| 20260504174504 | 62 | 286 | 2.6 | 9.6 | 0.00 | 0.00 | 0.00 | 85 | 1015.4 |
| 20260504173100 | 62 | 209 | 6.1 | 11.3 | 0.00 | 0.00 | 0.00 | 84 | 1015.5 |
| 20260504171557 | 61 | 234 | 6.1 | 13.0 | 0.00 | 0.00 | 0.00 | 85 | 1015.5 |